Weather History for Toledo Metcalf, OH

Change the Weather History Date:

Monday, August 19, 2013

  Actual Average (KTOL) Record (KTOL)
Temperature  
Mean Temperature 70 °F 72 °F  
Max Temperature 84 °F 82 °F 97 °F (1955)
Min Temperature 57 °F 61 °F 46 °F (1977)
Degree Days  
Heating Degree Days 0 0  
Month to date heating degree days 0  
Since 1 June heating degree days 38  
Since 1 July heating degree days 3  
Cooling Degree Days 6 7  
Month to date cooling degree days 142  
Year to date cooling degree days 630  
Since 1 June cooling degree days 577  
Growing Degree Days 20 (Base 50)    
Moisture  
Dew Point 57 °F    
Average Humidity 65    
Maximum Humidity 90    
Minimum Humidity 36    
Precipitation  
Precipitation 0.00 in 0.10 in 1.88 in (2007)
Month to date precipitation 1.97  
Year to date precipitation 22.14  
Snow  
Snow 0.00 in 0.00 in - ()
Month to date snowfall 0.0  
Since 1 June snowfall 0.0  
Since 1 July snowfall 0.0  
Snow Depth -    
Sea Level Pressure  
Sea Level Pressure 30.11 in    
Wind  
Wind Speed 2 mph (WSW)    
Max Wind Speed 10 mph    
Max Gust Speed -    
Visibility 8 miles    
Events      
T = Trace of Precipitation, MM = Missing Value Source: NWS Daily Summary

Daily Weather History Graph

Daily Weather History Graph

Search for Another Location

Airport:

Trip Planner

Search our weather history database for the weather conditions in past years. The results will help you decide how hot, cold, wet, or windy it might be!

Date:

Astronomy

Aug. 19, 2013 Rise Set
Actual Time 6:46 AM EDT 8:27 PM EDT
Civil Twilight 6:17 AM EDT 8:56 PM EDT
Nautical Twilight 5:41 AM EDT 9:32 PM EDT
Astronomical Twilight 5:03 AM EDT 10:10 PM EDT
Moon 7:17 PM EDT (8/19) 5:04 AM EDT (8/19)
Length of Visible Light 14h 39m
Length of Day
13h 40m
Waxing Gibbous, 97% of the Moon is Illuminated
Aug 19
Waxing Gibbous
Aug 20
Full
Aug 28
Last Quarter
Sep 5
New
Sep 12
First Quarter

Hourly Weather History & Observations

Time (EDT) Temp. Heat Index Dew Point Humidity Pressure Visibility Wind Dir Wind Speed Gust Speed Precip Events Conditions
12:53 AM 63.0 °F - 55.9 °F 78% 30.13 in 10.0 mi Calm Calm - N/A   Clear
1:53 AM 61.0 °F - 55.0 °F 81% 30.12 in 10.0 mi Calm Calm - N/A   Clear
2:53 AM 63.0 °F - 57.0 °F 81% 30.12 in 8.0 mi Calm Calm - N/A   Clear
3:53 AM 61.0 °F - 55.9 °F 83% 30.12 in 7.0 mi Calm Calm - N/A   Clear
4:53 AM 59.0 °F - 55.0 °F 87% 30.12 in 5.0 mi Calm Calm - N/A   Clear
5:53 AM 57.9 °F - 54.0 °F 87% 30.13 in 6.0 mi Calm Calm - N/A   Clear
6:53 AM 60.1 °F - 55.0 °F 83% 30.14 in 5.0 mi Calm Calm - N/A   Haze
7:13 AM 59.0 °F - 55.4 °F 88% 30.15 in 2.5 mi Calm Calm - N/A   Scattered Clouds
7:53 AM 60.1 °F - 57.0 °F 90% 30.14 in 2.5 mi Calm Calm - N/A   Mostly Cloudy
8:08 AM 62.6 °F - 57.2 °F 82% 30.15 in 3.0 mi Calm Calm - N/A   Overcast
8:53 AM 64.0 °F - 57.0 °F 78% 30.14 in 5.0 mi Calm Calm - N/A   Haze
9:53 AM 69.1 °F - 57.9 °F 68% 30.14 in 9.0 mi SW 3.5 mph - N/A   Partly Cloudy
10:53 AM 73.9 °F - 57.9 °F 57% 30.14 in 10.0 mi SW 6.9 mph - N/A   Partly Cloudy
11:53 AM 77.0 °F - 57.0 °F 50% 30.13 in 10.0 mi WNW 3.5 mph - N/A   Clear
12:53 PM 81.0 °F 80.8 °F 55.9 °F 42% 30.11 in 10.0 mi North 4.6 mph - N/A   Clear
1:53 PM 82.0 °F 81.6 °F 55.9 °F 41% 30.12 in 10.0 mi West 10.4 mph - N/A   Partly Cloudy
2:53 PM 82.9 °F 82.6 °F 57.9 °F 42% 30.10 in 10.0 mi NW 6.9 mph - N/A   Overcast
3:53 PM 84.9 °F 83.6 °F 55.0 °F 36% 30.08 in 10.0 mi West 9.2 mph - N/A   Mostly Cloudy
4:53 PM 82.9 °F 82.1 °F 55.9 °F 39% 30.08 in 10.0 mi WNW 6.9 mph - N/A   Partly Cloudy
5:53 PM 82.9 °F 82.1 °F 55.9 °F 39% 30.07 in 10.0 mi WSW 8.1 mph - N/A   Clear
6:53 PM 82.0 °F 81.7 °F 57.0 °F 42% 30.06 in 10.0 mi WSW 9.2 mph - N/A   Partly Cloudy
7:53 PM 79.0 °F - 57.9 °F 48% 30.05 in 10.0 mi SW 3.5 mph - N/A   Clear
8:53 PM 73.0 °F - 60.1 °F 64% 30.06 in 10.0 mi South 3.5 mph - N/A   Clear
9:53 PM 69.1 °F - 59.0 °F 70% 30.07 in 10.0 mi South 4.6 mph - N/A   Clear
10:53 PM 71.1 °F - 60.1 °F 68% 30.08 in 10.0 mi SSW 4.6 mph - N/A   Scattered Clouds
11:53 PM 69.1 °F - 60.1 °F 73% 30.08 in 10.0 mi SW 3.5 mph - N/A   Partly Cloudy